• en Suisse
  • Liste des pays
  • À 7 jours
  • Température de l'eau
  • Carte satellitaire
  • Carte météo
  • Widgets météo
  • user-avatar
    Se connecter

    Météo par heure à Krasnyy

    Ce jour, 16 Novembre, Vendredi

    Heure Température Précipitation Vent Pression Humidité
    00:00 -2°C° 0.4 mm 8 m/s 762 mmHg 89%
    01:00 -2°C° 0.3 mm 8 m/s 762 mmHg 90%
    02:00 -2°C° 0.3 mm 8 m/s 762 mmHg 90%
    03:00 -2°C° 0.3 mm 8 m/s 763 mmHg 90%
    04:00 -4°C° 0.2 mm 8 m/s 763 mmHg 90%
    05:00 -4°C° 0.2 mm 8 m/s 763 mmHg 90%
    06:00 -4°C° 0.2 mm 8 m/s 763 mmHg 89%
    07:00 -4°C° 0.1 mm 8 m/s 764 mmHg 88%
    08:00 -4°C° 0.1 mm 8 m/s 764 mmHg 87%
    09:00 -4°C° 0.1 mm 8 m/s 764 mmHg 87%
    10:00 -4°C° 0 mm 8 m/s 764 mmHg 87%
    11:00 -4°C° 0 mm 8 m/s 764 mmHg 87%
    12:00 -4°C° 0 mm 8 m/s 765 mmHg 88%
    13:00 -4°C° 0.1 mm 8 m/s 765 mmHg 88%
    14:00 -4°C° 0.1 mm 8 m/s 765 mmHg 89%
    15:00 -4°C° 0.1 mm 8 m/s 765 mmHg 89%
    16:00 -4°C° 0.1 mm 8 m/s 765 mmHg 89%
    17:00 -4°C° 0.1 mm 8 m/s 765 mmHg 88%
    18:00 -4°C° 0.1 mm 8 m/s 765 mmHg 88%
    19:00 -4°C° 0.1 mm 8 m/s 765 mmHg 88%
    20:00 -2°C° 0.1 mm 8 m/s 765 mmHg 87%
    21:00 -2°C° 0.1 mm 8 m/s 765 mmHg 87%
    22:00 -2°C° 0 mm 8 m/s 765 mmHg 85%
    23:00 -2°C° 0 mm 7 m/s 765 mmHg 83%

    Demain, 17 Novembre, Samedi

    Heure Température Précipitation Vent Pression Humidité
    00:00 -2°C° 0 mm 7 m/s 765 mmHg 81%
    01:00 -3°C° 0 mm 7 m/s 765 mmHg 80%
    02:00 -3°C° 0 mm 7 m/s 765 mmHg 78%
    03:00 -3°C° 0 mm 7 m/s 765 mmHg 77%
    04:00 -3°C° 0 mm 7 m/s 765 mmHg 78%
    05:00 -4°C° 0 mm 6 m/s 765 mmHg 78%
    06:00 -4°C° 0 mm 6 m/s 765 mmHg 79%
    07:00 -4°C° 0 mm 6 m/s 765 mmHg 78%
    08:00 -4°C° 0 mm 6 m/s 765 mmHg 77%
    09:00 -4°C° 0 mm 6 m/s 765 mmHg 77%
    10:00 -3°C° 0 mm 6 m/s 765 mmHg 77%
    11:00 -3°C° 0 mm 6 m/s 765 mmHg 78%
    12:00 -3°C° 0 mm 6 m/s 765 mmHg 79%
    13:00 -3°C° 0.1 mm 6 m/s 765 mmHg 82%
    14:00 -2°C° 0.1 mm 5 m/s 764 mmHg 84%
    15:00 -2°C° 0.1 mm 5 m/s 764 mmHg 86%
    16:00 -2°C° 0 mm 5 m/s 764 mmHg 87%
    17:00 -2°C° 0 mm 5 m/s 764 mmHg 88%
    18:00 -2°C° 0 mm 5 m/s 763 mmHg 89%
    19:00 -2°C° 0.1 mm 4 m/s 763 mmHg 90%
    20:00 -2°C° 0.1 mm 4 m/s 763 mmHg 90%
    21:00 -2°C° 0.1 mm 4 m/s 763 mmHg 91%
    22:00 -2°C° 0.1 mm 4 m/s 763 mmHg 91%
    23:00 -2°C° 0.1 mm 4 m/s 762 mmHg 92%

    Après-demain, 18 Novembre, Dimanche

    Heure Température Précipitation Vent Pression Humidité
    00:00 -1°C° 0.1 mm 3 m/s 762 mmHg 92%
    01:00 -1°C° 0.1 mm 3 m/s 761 mmHg 92%
    02:00 -1°C° 0.1 mm 3 m/s 761 mmHg 92%
    03:00 -1°C° 0.1 mm 3 m/s 761 mmHg 93%
    04:00 -1°C° 0.1 mm 3 m/s 760 mmHg 93%
    05:00 -1°C° 0.1 mm 3 m/s 760 mmHg 93%
    06:00 -1°C° 0.1 mm 3 m/s 759 mmHg 94%
    07:00 -1°C° 0.1 mm 2 m/s 759 mmHg 94%
    08:00 -1°C° 0.1 mm 2 m/s 759 mmHg 94%
    09:00 -1°C° 0.1 mm 2 m/s 759 mmHg 94%
    10:00 -1°C° 0.1 mm 2 m/s 759 mmHg 94%
    11:00 +2°C° 0.1 mm 1 m/s 759 mmHg 94%
    12:00 +2°C° 0.1 mm 1 m/s 759 mmHg 95%
    13:00 +2°C° 0 mm 1 m/s 759 mmHg 94%
    14:00 +2°C° 0 mm 1 m/s 759 mmHg 94%
    15:00 +3°C° 0 mm 1 m/s 758 mmHg 94%
    16:00 +2°C° 0 mm 1 m/s 759 mmHg 94%
    17:00 +1°C° 0 mm 0 m/s 759 mmHg 95%
    18:00 +1°C° 0 mm 0 m/s 759 mmHg 96%
    19:00 +1°C° 0 mm 0 m/s 759 mmHg 96%
    20:00 +2°C° 0 mm 1 m/s 759 mmHg 96%
    21:00 +2°C° 0 mm 1 m/s 759 mmHg 96%
    22:00 +2°C° 0 mm 1 m/s 759 mmHg 96%
    23:00 +1°C° 0 mm 1 m/s 759 mmHg 96%

    19 Novembre, Lundi

    Heure Température Précipitation Vent Pression Humidité
    00:00 +1°C° 0 mm 1 m/s 759 mmHg 96%
    01:00 +2°C° 0 mm 1 m/s 759 mmHg 96%
    02:00 +2°C° 0 mm 1 m/s 759 mmHg 96%
    03:00 +2°C° 0 mm 1 m/s 759 mmHg 96%
    04:00 +2°C° 0 mm 1 m/s 760 mmHg 95%
    05:00 +1°C° 0 mm 2 m/s 760 mmHg 95%
    06:00 +1°C° 0 mm 2 m/s 760 mmHg 95%
    07:00 +1°C° 0 mm 2 m/s 760 mmHg 95%
    08:00 0°C° 0 mm 3 m/s 761 mmHg 95%
    09:00 0°C° 0 mm 3 m/s 761 mmHg 95%
    10:00 +1°C° 0 mm 3 m/s 761 mmHg 94%
    11:00 0°C° 0 mm 4 m/s 761 mmHg 92%
    12:00 +1°C° 0 mm 4 m/s 761 mmHg 91%
    13:00 +1°C° 0 mm 4 m/s 761 mmHg 90%
    14:00 +1°C° 0 mm 5 m/s 761 mmHg 89%
    15:00 +1°C° 0 mm 5 m/s 761 mmHg 88%
    16:00 0°C° 0 mm 5 m/s 761 mmHg 88%
    17:00 0°C° 0 mm 5 m/s 761 mmHg 89%
    18:00 0°C° 0 mm 5 m/s 761 mmHg 89%
    19:00 0°C° 0 mm 5 m/s 761 mmHg 88%
    20:00 0°C° 0 mm 5 m/s 761 mmHg 86%
    21:00 0°C° 0 mm 5 m/s 761 mmHg 85%
    22:00 -1°C° 0 mm 5 m/s 761 mmHg 84%
    23:00 -1°C° 0 mm 5 m/s 762 mmHg 82%

    20 Novembre, Mardi

    Heure Température Précipitation Vent Pression Humidité
    00:00 -1°C° 0 mm 5 m/s 762 mmHg 80%
    01:00 -2°C° 0 mm 6 m/s 762 mmHg 79%
    02:00 -2°C° 0 mm 6 m/s 761 mmHg 77%
    03:00 -2°C° 0 mm 6 m/s 761 mmHg 76%
    04:00 -2°C° 0 mm 6 m/s 761 mmHg 77%
    05:00 -2°C° 0 mm 6 m/s 761 mmHg 78%
    06:00 -2°C° 0 mm 6 m/s 761 mmHg 79%
    07:00 -2°C° 0.2 mm 6 m/s 761 mmHg 81%
    08:00 -2°C° 0.2 mm 6 m/s 761 mmHg 83%
    09:00 -1°C° 0.2 mm 6 m/s 761 mmHg 85%
    10:00 -1°C° 0.5 mm 6 m/s 761 mmHg 86%
    11:00 -1°C° 0.5 mm 6 m/s 761 mmHg 87%
    12:00 -1°C° 0.5 mm 6 m/s 761 mmHg 88%
    13:00 -1°C° 0.3 mm 6 m/s 761 mmHg 88%
    14:00 -1°C° 0.3 mm 6 m/s 761 mmHg 89%
    15:00 +1°C° 0.3 mm 6 m/s 761 mmHg 89%
    16:00 +1°C° 0.2 mm 6 m/s 761 mmHg 89%
    17:00 -1°C° 0.2 mm 6 m/s 761 mmHg 90%
    18:00 -1°C° 0.2 mm 6 m/s 761 mmHg 90%
    19:00 0°C° 0.1 mm 5 m/s 761 mmHg 90%
    20:00 0°C° 0.1 mm 5 m/s 761 mmHg 90%
    21:00 0°C° 0.1 mm 5 m/s 760 mmHg 90%
    22:00 0°C° 0.1 mm 5 m/s 760 mmHg 90%
    23:00 0°C° 0.1 mm 5 m/s 760 mmHg 90%

    21 Novembre, Mercredi

    Heure Température Précipitation Vent Pression Humidité
    00:00 0°C° 0.1 mm 5 m/s 760 mmHg 90%
    01:00 0°C° 0 mm 5 m/s 760 mmHg 91%
    02:00 0°C° 0 mm 5 m/s 760 mmHg 91%
    03:00 0°C° 0 mm 5 m/s 760 mmHg 91%
    04:00 0°C° 0 mm 5 m/s 760 mmHg 91%
    05:00 0°C° 0 mm 5 m/s 759 mmHg 91%
    06:00 0°C° 0 mm 5 m/s 759 mmHg 92%
    07:00 0°C° 0 mm 5 m/s 759 mmHg 91%
    08:00 0°C° 0 mm 5 m/s 759 mmHg 91%
    09:00 0°C° 0 mm 5 m/s 759 mmHg 91%
    10:00 +1°C° 0 mm 5 m/s 759 mmHg 90%
    11:00 +1°C° 0 mm 5 m/s 759 mmHg 88%
    12:00 +2°C° 0 mm 5 m/s 759 mmHg 87%
    13:00 +2°C° 0 mm 5 m/s 758 mmHg 87%
    14:00 +2°C° 0 mm 5 m/s 758 mmHg 88%
    15:00 +2°C° 0 mm 5 m/s 757 mmHg 88%
    16:00 +2°C° 0 mm 5 m/s 757 mmHg 88%
    17:00 +2°C° 0 mm 5 m/s 757 mmHg 89%
    18:00 +2°C° 0 mm 5 m/s 757 mmHg 90%
    19:00 +2°C° 0 mm 5 m/s 757 mmHg 90%
    20:00 +2°C° 0 mm 5 m/s 757 mmHg 90%
    21:00 +2°C° 0 mm 5 m/s 756 mmHg 91%
    22:00 +2°C° 0 mm 5 m/s 756 mmHg 91%
    23:00 +2°C° 0 mm 5 m/s 756 mmHg 91%
    Voir plus